This demonstration page uses our WeatherBlox Daily Observations layout. Learn more.

Left ArrowRight Arrow

Hourly Observations for August 16, 2022

Temp ( °F °C ) Dew Point ( °F °C ) Humidity (%) Winds ( mph kmh ) Pressure ( in mb ) Visibility ( mi km ) Precip ( " mm )
12:53 am 00:53 Clear 81 27.2 72 22.2 74 74 WSW 5 7 29.92 1013 10 16 0.00 0.00
1:53 am 01:53 Clear 81 27.2 72 22.2 74 74 W 6 9 29.92 1013 10 16 0.00 0.00
2:53 am 02:53 Clear 80 26.7 73 22.8 79 79 WSW 5 7 29.92 1013 10 16 0.00 0.00
3:53 am 03:53 Clear 78 25.6 72 22.2 82 82 Calm 29.92 1013 10 16 0.00 0.00
4:53 am 04:53 Clear 79 26.1 73 22.8 82 82 Calm 29.92 1013 10 16 0.00 0.00
5:53 am 05:53 Clear 76 24.4 72 22.2 88 88 Calm 29.93 1014 9 14 0.00 0.00
6:53 am 06:53 Sunny 77 25 73 22.8 88 88 Calm 29.93 1013 8 13 0.00 0.00
7:53 am 07:53 Sunny 79 26.1 74 23.3 85 85 WNW 3 6 29.94 1014 9 14 0.00 0.00
8:53 am 08:53 Sunny 85 29.4 75 23.9 72 72 W 9 15 29.95 1014 10 16 0.00 0.00
9:53 am 09:53 Sunny 89 31.7 73 22.8 59 59 WNW 10 17 29.96 1015 10 16 0.00 0.00
10:53 am 10:53 Sunny 92 33.3 73 22.8 54 54 WNW 9 15 29.97 1015 10 16 0.00 0.00
11:53 am 11:53 Partly Cloudy 93 33.9 71 21.7 49 49 WNW 8 13 29.97 1015 10 16 0.00 0.00
12:53 pm 12:53 Partly Cloudy 95 35 70 21.1 45 45 WSW 7 11 29.96 1015 10 16 0.00 0.00
1:53 pm 13:53 Sunny 96 35.6 70 21.1 43 43 SSW 7 11 29.94 1014 10 16 0.00 0.00
2:53 pm 14:53 Sunny 97 36.1 69 20.6 41 41 W 9 15 29.92 1013 10 16 0.00 0.00
3:53 pm 15:53 Sunny 98 36.7 69 20.6 39 39 SW 8 13 29.90 1013 10 16 0.00 0.00
4:53 pm 16:53 Mostly Sunny 98 36.7 68 20 38 38 SSW 9 15 29.87 1012 10 16 0.00 0.00
5:53 pm 17:53 Partly Cloudy 98 36.7 68 20 38 38 WSW 7 11 29.87 1012 10 16 0.00 0.00
6:53 pm 18:53 Sunny 94 34.4 68 20 43 43 SW 6 9 29.87 1012 10 16 0.00 0.00
7:53 pm 19:53 Clear 89 31.7 69 20.6 52 52 SSW 5 7 29.89 1012 10 16 0.00 0.00
8:53 pm 20:53 Clear 85 29.4 70 21.1 61 61 S 6 9 29.90 1013 10 16 0.00 0.00
9:53 pm 21:53 Clear 84 28.9 73 22.8 70 70 SSE 5 7 29.91 1013 10 16 0.00 0.00
10:53 pm 22:53 Clear 82 27.8 73 22.8 74 74 S 5 7 29.91 1013 10 16 0.00 0.00
11:53 pm 23:53 Clear 80 26.7 73 22.8 79 79 S 5 7 29.91 1013 10 16 0.00 0.00

Powered by AerisWeather